GW4332 Weather Reports


time (UTC)temp
F
wind
direction
speed
knots
gust
knots
rain 1hr
in
rain 24hr
in
rain mn
in
humidity
%
barometer
mb
20260901141030 65 263 14.8 20.0 0.00 0.00 0.00 73 1019.6
20260901140029 65 272 14.8 20.0 0.00 0.00 0.00 75 1019.6
20260901135030 65 267 14.8 17.4 0.00 0.00 0.00 75 1019.5
20260901134030 65 273 13.0 17.4 0.00 0.00 0.00 77 1019.5
20260901133030 64 271 13.9 20.0 0.00 0.00 0.00 77 1019.5
20260901132029 64 270 15.6 20.0 0.00 0.00 0.00 76 1019.3
20260901131030 65 258 17.4 23.5 0.00 0.00 0.00 76 1019.4
20260901130030 65 258 17.4 22.6 0.00 0.00 0.00 75 1019.4
20260901125030 65 244 15.6 21.7 0.00 0.00 0.00 73 1019.4
20260901124029 65 251 13.9 17.4 0.00 0.00 0.00 72 1019.5
20260901123030 65 271 17.4 22.6 0.00 0.00 0.00 70 1019.4
20260901122030 65 277 17.4 23.5 0.00 0.00 0.00 70 1019.4
20260901121030 65 279 18.2 22.6 0.00 0.00 0.00 72 1019.3
20260901120030 65 269 16.5 21.7 0.00 0.00 0.00 71 1019.5
20260901115030 65 268 18.2 23.5 0.00 0.00 0.00 72 1019.3
20260901114030 65 263 17.4 20.9 0.00 0.00 0.00 74 1019.3
20260901113030 64 281 18.2 23.5 0.00 0.00 0.00 76 1019.2
20260901112029 64 271 18.2 23.5 0.00 0.00 0.00 74 1019.1
20260901111030 65 251 16.5 21.7 0.00 0.00 0.00 70 1019.1
20260901110030 65 249 15.6 20.9 0.00 0.00 0.00 69 1019.1
20260901105029 65 232 14.8 20.0 0.00 0.00 0.00 69 1019.1
20260901104030 64 253 17.4 21.7 0.00 0.00 0.00 70 1019.1
20260901103030 64 244 16.5 21.7 0.00 0.00 0.00 73 1019.0
20260901102030 64 254 17.4 23.5 0.00 0.00 0.00 74 1019.0
20260901101030 64 248 15.6 22.6 0.00 0.00 0.00 74 1018.9
20260901100029 64 241 15.6 19.1 0.00 0.00 0.00 73 1018.8
20260901095030 64 253 15.6 22.6 0.00 0.00 0.00 71 1018.9
20260901094030 64 245 14.8 20.9 0.00 0.00 0.00 76 1018.9
20260901093030 64 258 17.4 23.5 0.00 0.00 0.00 73 1018.8
20260901092030 64 255 18.2 22.6 0.00 0.00 0.00 75 1018.7
20260901091030 64 262 18.2 22.6 0.00 0.00 0.00 76 1018.6
20260901090030 64 242 13.9 20.0 0.00 0.00 0.00 77 1018.6
20260901085030 64 248 12.2 16.5 0.00 0.00 0.00 79 1018.5
20260901084029 64 237 13.0 18.2 0.00 0.00 0.00 79 1018.5
20260901083030 64 249 13.0 17.4 0.00 0.00 0.00 80 1018.3
20260901082030 63 261 13.9 18.2 0.00 0.00 0.00 79 1018.1
20260901081029 63 241 13.9 18.2 0.00 0.00 0.00 78 1017.9
20260901080030 63 247 13.0 16.5 0.00 0.00 0.00 80 1017.8
20260901075030 63 245 13.0 16.5 0.00 0.00 0.00 80 1017.7
20260901074030 63 233 12.2 15.6 0.00 0.00 0.00 81 1017.7
20260901073030 63 250 13.0 16.5 0.00 0.00 0.00 80 1017.5
20260901072030 63 251 13.0 17.4 0.00 0.00 0.00 80 1017.4
20260901071030 63 246 13.9 18.2 0.00 0.00 0.00 81 1017.4
20260901070030 63 250 14.8 19.1 0.00 0.00 0.00 81 1017.3
20260901065030 64 237 14.8 20.0 0.00 0.00 0.00 82 1017.1
20260901064030 63 248 13.0 16.5 0.00 0.00 0.00 82 1017.1
20260901063030 63 237 13.0 16.5 0.00 0.00 0.00 83 1017.1
20260901062030 63 240 13.0 15.6 0.00 0.00 0.00 84 1016.9
20260901061030 63 241 12.2 16.5 0.00 0.00 0.00 85 1016.8
20260901060030 62 236 9.6 16.5 0.00 0.00 0.00 89 1016.7
20260901055030 61 224 7.8 12.2 0.00 0.00 0.00 90 1016.9
20260901054029 61 209 6.1 11.3 0.00 0.00 0.00 91 1016.7
20260901053038 61 218 6.1 11.3 0.00 0.00 0.00 91 1016.7
20260901052030 60 209 5.2 9.6 0.00 0.00 0.00 91 1016.6
20260901051030 61 212 6.1 9.6 0.00 0.00 0.00 91 1016.5
20260901050030 60 205 5.2 9.6 0.00 0.00 0.00 91 1016.5
20260901045030 60 191 5.2 8.7 0.00 0.00 0.00 90 1016.4
20260901044030 60 189 5.2 9.6 0.00 0.00 0.00 90 1016.4
20260901043030 61 190 5.2 8.7 0.00 0.00 0.00 90 1016.3
20260901042030 61 195 4.3 8.7 0.00 0.00 0.00 89 1016.2
20260901041030 61 199 5.2 8.7 0.00 0.00 0.00 89 1016.2
20260901040030 62 193 5.2 7.8 0.00 0.00 0.00 88 1016.2
20260901035030 62 203 5.2 9.6 0.00 0.00 0.00 87 1016.1
20260901034030 63 209 5.2 8.7 0.00 0.00 0.00 86 1016.1
20260901033030 64 248 9.6 13.9 0.00 0.00 0.00 85 1016.1
20260901032030 64 247 11.3 14.8 0.00 0.00 0.00 86 1015.9
20260901031031 63 253 7.8 14.8 0.00 0.00 0.00 90 1015.8
20260901030030 62 203 3.5 7.8 0.00 0.00 0.00 89 1015.9
20260901025030 62 217 6.1 9.6 0.00 0.00 0.00 89 1015.9
20260901024030 62 205 6.1 9.6 0.00 0.00 0.00 89 1015.9
20260901023030 62 216 5.2 10.4 0.00 0.00 0.00 88 1015.8
20260901022029 63 208 5.2 10.4 0.00 0.00 0.00 87 1015.9
20260901021030 64 213 7.8 13.0 0.00 0.00 0.00 86 1015.9
20260901020030 64 243 8.7 13.0 0.00 0.00 0.00 87 1015.7
20260901015030 64 231 10.4 13.0 0.00 0.00 0.00 87 1015.6
20260901014030 64 242 9.6 13.0 0.00 0.00 0.00 88 1015.5
20260901013030 63 225 7.0 12.2 0.00 0.00 0.00 89 1015.6
20260901012030 62 223 7.8 13.0 0.00 0.00 0.00 89 1015.6
20260901011031 62 218 9.6 13.9 0.00 0.00 0.00 89 1015.6
20260901010030 62 219 7.8 13.0 0.00 0.00 0.00 89 1015.6
20260901005030 62 215 7.0 13.9 0.00 0.00 0.00 88 1015.5
20260901004029 62 207 7.0 13.9 0.00 0.00 0.00 88 1015.5
20260901003030 62 203 7.8 11.3 0.00 0.00 0.00 88 1015.4
20260901002030 62 203 7.0 12.2 0.00 0.00 0.00 87 1015.3
20260901001030 62 203 7.8 11.3 0.00 0.00 0.00 86 1015.3
20260901000030 63 214 7.0 12.2 0.00 0.00 0.00 87 1015.3
20260831235029 63 208 6.1 10.4 0.00 0.00 0.00 87 1015.3
20260831234030 63 206 5.2 7.8 0.00 0.00 0.00 87 1015.2
20260831233030 63 215 5.2 8.7 0.00 0.00 0.00 86 1015.1
20260831232030 63 201 5.2 8.7 0.00 0.00 0.00 86 1015.0
20260831231029 63 200 5.2 8.7 0.00 0.00 0.00 86 1015.1
20260831230030 63 204 5.2 7.8 0.00 0.00 0.00 86 1015.2
20260831225030 63 201 4.3 7.8 0.00 0.00 0.00 86 1015.2
20260831224030 64 208 6.1 9.6 0.00 0.00 0.00 86 1015.1
20260831223030 63 208 6.1 9.6 0.00 0.00 0.00 86 1015.1
20260831222030 64 206 5.2 7.8 0.00 0.00 0.00 85 1015.1
20260831221030 65 218 6.1 11.3 0.00 0.00 0.00 85 1015.1
20260831220030 65 242 10.4 13.9 0.00 0.00 0.15 85 1014.9
20260831215030 65 233 9.6 13.0 0.00 0.00 0.15 85 1014.9
20260831214030 65 245 11.3 14.8 0.00 0.00 0.15 85 1014.8
20260831213030 65 244 10.4 14.8 0.00 0.00 0.15 85 1014.7
20260831212030 65 241 11.3 14.8 0.00 0.00 0.15 85 1014.7
20260831211029 65 244 11.3 14.8 0.00 0.00 0.15 84 1014.5
20260831210030 65 242 11.3 17.4 0.00 0.00 0.15 84 1014.4
20260831205030 65 246 13.0 17.4 0.00 0.00 0.15 84 1014.3
20260831204029 65 246 13.9 18.2 0.00 0.00 0.15 85 1014.3
20260831203030 65 258 15.6 20.0 0.00 0.00 0.15 84 1014.2
20260831202030 65 260 19.1 22.6 0.00 0.00 0.15 84 1014.1
20260831201030 65 252 18.2 22.6 0.00 0.00 0.15 84 1013.9
20260831200030 65 248 20.0 26.1 0.00 0.00 0.15 84 1013.9
20260831195030 65 251 20.9 26.1 0.00 0.00 0.15 84 1013.6
20260831194030 65 246 18.2 24.3 0.00 0.00 0.15 83 1013.4
20260831193030 65 257 19.1 24.3 0.00 0.00 0.15 83 1013.4
20260831192030 65 249 19.1 27.8 0.00 0.00 0.15 83 1013.1
20260831191030 65 252 18.2 24.3 0.00 0.00 0.15 83 1013.2
20260831190030 65 252 20.0 26.1 0.00 0.00 0.15 83 1012.9
20260831185030 65 253 20.9 26.9 0.00 0.00 0.15 83 1012.7
20260831184029 65 256 20.9 26.9 0.00 0.00 0.15 83 1012.6
20260831183030 65 260 21.7 26.9 0.00 0.00 0.15 84 1012.3
20260831182030 65 247 21.7 29.5 0.00 0.00 0.15 84 1012.2
20260831181030 65 240 22.6 27.8 0.00 0.00 0.15 84 1012.0
20260831180030 65 237 20.9 28.7 0.00 0.00 0.15 85 1012.0
20260831175030 64 249 22.6 28.7 0.00 0.00 0.15 85 1011.7
20260831174029 65 237 23.5 33.0 0.00 0.00 0.15 83 1011.4
20260831173033 65 259 26.1 33.9 0.00 0.00 0.15 83 1011.2
20260831172030 65 256 25.2 33.0 0.00 0.00 0.15 81 1011.2
20260831171030 65 255 29.5 36.5 0.00 0.00 0.15 81 1010.9
20260831170030 65 252 29.5 40.8 0.00 0.00 0.15 83 1010.8
20260831165030 65 251 24.3 36.5 0.00 0.00 0.15 81 1010.5
20260831164030 66 246 21.7 29.5 0.00 0.00 0.15 81 1010.8
20260831163030 66 243 22.6 30.4 0.00 0.00 0.15 79 1010.6
20260831162029 66 243 22.6 31.3 0.00 0.00 0.15 80 1010.4
20260831161030 66 257 21.7 31.3 0.00 0.00 0.15 79 1010.1
20260831160030 66 249 21.7 28.7 0.00 0.00 0.15 80 1010.2
20260831155030 65 241 18.2 25.2 0.00 0.00 0.15 82 1010.2
20260831154030 65 250 21.7 32.2 0.00 0.00 0.15 81 1010.1
20260831153030 65 250 22.6 27.8 0.00 0.00 0.15 80 1009.9
20260831152029 65 249 23.5 31.3 0.00 0.00 0.15 78 1009.8
20260831151030 65 257 23.5 30.4 0.00 0.00 0.15 78 1009.7
20260831150030 65 250 20.9 28.7 0.00 0.00 0.15 80 1009.6
20260831145030 64 240 19.1 26.1 0.00 0.00 0.15 82 1009.7
20260831144030 64 246 20.0 26.9 0.00 0.00 0.15 82 1009.6
20260831143030 64 257 20.9 27.8 0.00 0.00 0.15 82 1009.4
20260831142029 64 233 21.7 30.4 0.00 0.00 0.15 81 1009.3